Theta_e
334 343 349 351 351 351 350 349 349 349 349 349 348 348 348 346 347 346 347 348 348 347 346 346 346 346 345 342 340 339 339 340 341 344 351 351 349 347 346 348 348 349 352
336 344 348 352 352 351 350 350 350 350 350 348 347 349 349 348 347 349 348 349 348 346 344 343 342 342 341 339 337 335 334 334 335 337 343 350 350 346 345 345 347 347 350
334 344 348 350 352 351 351 350 348 349 349 348 348 346 347 345 344 346 347 347 346 344 342 340 338 337 336 333 332 332 331 330 331 333 338 343 346 346 344 344 345 345 347
333 343 346 348 351 351 351 350 348 349 349 348 347 345 343 342 339 340 344 344 343 340 339 337 335 333 330 329 329 328 327 327 329 333 335 338 341 346 345 344 343 344 345
332 342 345 347 351 352 351 350 348 349 350 349 347 345 343 340 337 336 338 337 337 337 335 332 330 328 326 325 323 323 322 322 324 331 335 338 342 345 345 344 343 343 344
332 339 344 347 350 351 351 350 348 348 349 350 349 345 342 337 335 334 335 336 335 334 331 328 326 325 323 321 319 319 318 317 323 329 332 335 338 340 343 342 341 341 342
332 336 343 345 348 349 350 350 349 348 350 349 346 344 340 339 335 333 333 334 334 331 327 325 325 321 320 318 316 315 313 315 319 324 328 332 332 335 337 337 337 337 337
332 336 338 339 342 345 348 348 348 349 348 345 343 340 339 339 335 333 332 332 330 327 325 324 321 320 318 316 314 312 310 312 314 317 324 327 328 330 331 332 333 333 333
334 335 338 340 340 337 341 343 345 345 344 343 341 337 338 336 334 331 330 329 327 324 324 323 320 318 316 314 312 309 307 311 310 313 314 319 322 326 326 327 328 329 329
333 335 337 338 339 340 342 334 336 338 339 338 337 334 332 332 331 329 328 327 325 324 322 321 319 317 314 311 308 305 303 309 307 309 312 315 318 321 323 324 325 325 326
330 334 336 337 338 337 338 336 331 332 334 334 332 329 327 331 328 325 324 326 325 323 321 319 317 315 311 307 304 301 304 304 304 307 309 312 316 317 318 319 320 322 324
326 330 333 335 336 337 335 336 335 335 336 336 334 333 332 331 326 322 320 323 325 322 319 318 315 311 307 305 302 303 304 304 304 304 306 309 312 314 316 318 319 321 323
324 327 330 333 335 336 336 336 336 334 332 331 332 334 332 328 324 322 322 321 321 316 315 313 308 304 305 305 304 304 303 304 303 303 305 310 313 313 315 317 320 322 321
319 324 327 329 332 334 335 334 334 334 334 330 331 334 330 325 323 320 320 321 322 317 315 313 307 307 304 303 303 302 302 303 302 303 304 307 312 314 315 318 319 320 321
316 320 325 328 328 331 332 333 332 332 333 333 333 331 328 323 320 319 319 319 319 315 313 308 306 304 304 302 301 301 301 301 301 302 307 309 313 315 316 318 320 321 322
315 318 321 325 327 328 329 331 331 331 331 331 330 329 326 322 319 317 317 317 316 313 310 306 304 303 303 303 300 300 300 300 300 302 305 309 313 316 316 318 320 321 321
314 316 319 322 325 326 327 329 329 329 328 329 328 327 323 320 317 315 314 314 313 310 306 304 303 303 302 301 300 299 299 300 300 301 304 310 312 311 316 316 317 321 318
313 314 316 317 321 324 325 326 327 327 326 327 326 324 321 319 316 313 312 311 310 305 303 302 301 300 300 299 299 298 299 299 299 300 303 308 312 311 307 308 312 314 313
312 312 314 316 318 320 323 324 325 326 325 324 324 322 320 317 314 311 310 309 307 303 301 301 300 300 299 299 299 298 299 299 299 298 301 305 306 308 306 302 302 303 306
311 311 311 312 313 317 319 321 322 323 323 323 321 320 319 316 313 310 308 307 304 301 300 300 300 300 300 299 294 295 297 299 298 299 300 301 301 299 300 300 301 301 303
309 309 309 309 311 311 314 315 317 317 319 319 319 319 317 314 312 309 307 306 303 300 300 300 299 298 298 298 296 295 295 296 296 297 298 298 297 296 297 298 299 300 302
303 304 305 306 307 308 311 313 314 315 317 317 317 317 316 314 311 308 306 304 302 300 299 299 298 296 298 297 296 296 291 291 294 295 296 295 295 295 294 294 295 296 301
300 301 302 304 305 306 307 309 310 312 308 310 311 313 313 312 310 308 305 303 301 300 298 299 298 297 295 296 298 298 295 293 291 293 294 294 294 293 293 293 293 294 297
299 301 301 302 302 302 304 306 306 305 303 306 307 310 310 310 308 307 305 304 302 299 298 298 298 297 297 293 295 296 297 298 293 287 292 292 292 291 292 292 292 293 295
299 300 300 299 299 301 302 303 303 303 304 305 305 306 307 307 306 306 305 303 301 300 299 298 296 296 297 296 293 294 293 294 295 295 288 288 291 291 292 292 292 292 293
298 298 298 297 297 298 298 299 300 300 300 301 303 302 303 303 303 303 303 302 301 300 298 298 297 296 296 296 295 295 293 292 291 292 293 290 288 290 291 291 291 291 292
Wind_Speed
9 15 16 15 14 13 12 11 11 11 12 12 11 10 10 9 8 7 7 8 9 9 9 10 10 10 11 8 8 7 8 8 9 9 12 13 13 12 12 13 9 12 12
13 16 15 15 15 15 13 12 11 11 11 11 10 11 10 10 9 9 8 11 11 10 9 8 9 9 10 7 7 7 7 7 6 5 3 13 11 11 12 13 12 10 12
13 15 17 13 15 14 13 13 12 10 11 12 11 10 9 8 8 9 8 10 9 8 8 8 7 6 7 6 6 7 7 7 7 5 6 5 9 8 10 11 10 11 11
13 13 16 12 15 15 14 13 13 12 13 12 11 11 9 7 5 5 7 6 8 8 8 7 7 6 6 6 5 6 5 6 6 7 3 3 8 7 9 9 11 9 11
13 13 14 13 14 15 14 13 12 11 10 11 12 11 10 8 5 4 1 0 2 5 6 6 5 5 5 4 5 5 5 4 5 7 4 4 6 10 9 8 9 10 11
13 14 15 16 12 15 14 13 12 12 12 10 12 13 8 5 6 3 2 2 2 5 5 5 6 5 5 5 5 5 5 5 8 3 4 4 12 10 9 11 10 11 10
11 12 13 14 13 13 14 14 13 13 13 11 12 8 8 7 6 4 4 5 6 5 5 5 6 5 5 5 5 6 6 6 3 4 4 6 8 6 7 7 7 7 7
11 12 12 12 10 11 14 14 13 13 11 12 9 7 6 8 8 7 6 7 6 6 6 6 6 6 6 6 7 7 6 7 3 4 4 7 7 6 6 6 5 6 7
11 12 11 14 13 9 11 12 13 13 12 11 11 8 7 7 8 8 7 7 7 7 7 8 7 7 6 6 7 7 6 7 5 4 3 5 7 4 5 4 4 5 5
11 13 13 12 14 14 13 10 11 10 11 12 13 11 7 9 8 7 6 7 8 8 7 8 7 7 7 6 6 4 1 3 5 3 5 5 5 4 4 4 4 4 4
10 13 13 14 14 15 14 12 9 10 9 10 10 9 9 9 10 11 10 10 10 9 9 8 7 7 8 6 4 1 5 3 3 2 4 6 5 3 3 3 2 3 5
15 15 14 15 15 14 11 13 13 11 10 8 7 10 10 10 8 10 9 9 9 9 9 10 8 7 7 4 4 5 2 2 3 2 5 4 3 1 2 2 2 4 6
15 13 16 15 15 14 11 8 7 8 8 6 10 11 11 8 6 6 5 6 7 8 7 8 6 5 2 1 1 2 2 1 2 2 6 7 5 2 1 2 4 5 4
14 16 16 17 15 15 9 9 9 9 9 8 10 14 9 6 7 7 6 8 7 6 7 6 4 3 4 3 2 3 2 2 2 1 5 5 7 4 1 3 3 4 5
15 15 16 16 16 13 14 9 10 10 9 11 12 12 9 9 8 8 7 7 7 7 5 5 5 5 4 4 3 2 2 2 2 1 2 4 9 4 1 4 5 6 6
14 15 15 16 16 16 14 14 10 9 10 10 9 10 14 9 8 8 7 7 7 7 6 6 6 5 4 3 3 2 2 1 1 1 1 3 8 10 2 2 5 6 9
13 15 15 16 16 17 17 14 11 9 9 10 9 12 14 12 11 10 8 8 7 6 8 6 6 5 5 4 4 3 2 1 2 2 1 2 5 14 13 3 1 6 11
13 12 13 11 15 17 15 13 10 10 10 9 10 9 14 13 12 11 9 8 8 7 7 7 7 6 6 6 5 5 3 3 2 3 2 2 2 5 10 12 11 9 9
10 11 12 12 13 14 13 10 11 11 9 8 8 9 12 13 12 10 8 8 10 8 8 7 7 7 7 6 6 4 4 4 4 4 4 3 2 2 4 7 9 9 7
9 7 6 6 10 11 9 9 8 8 8 8 8 8 12 10 13 10 8 8 8 7 7 7 8 7 6 6 6 5 4 4 4 4 5 4 3 3 2 3 2 4 3
12 9 5 4 7 7 7 7 8 9 8 8 8 10 11 11 13 12 8 9 9 8 8 9 7 9 6 7 5 3 3 3 4 4 5 5 6 5 4 3 1 0 2
16 15 13 8 3 4 5 5 6 7 7 7 7 8 10 11 12 11 11 10 12 9 10 10 10 6 4 8 5 4 4 3 5 6 5 5 6 4 5 4 4 4 2
18 17 15 12 10 6 3 3 3 4 3 5 6 6 7 9 10 13 14 12 13 11 11 12 12 13 8 8 9 4 3 5 6 5 6 5 6 5 5 5 5 5 5
16 14 15 15 13 9 6 4 5 4 6 6 6 5 6 9 11 12 12 13 12 11 13 12 11 11 9 8 5 6 2 1 4 3 5 7 6 7 7 5 5 6 6
16 15 14 16 14 14 10 7 4 4 6 6 4 2 5 6 9 11 13 14 12 10 12 13 14 14 11 10 8 4 4 4 4 4 5 6 6 7 6 6 6 6 8
15 13 13 16 16 16 13 10 8 7 7 6 5 4 3 5 6 10 12 11 12 11 12 12 13 16 14 11 10 9 8 5 5 4 3 6 7 8 8 7 7 7 7
Wind_Direction
163 146 161 172 171 164 166 159 156 153 148 145 139 138 136 126 119 135 129 128 114 104 95 93 87 83 82 65 56 50 53 56 61 65 72 81 79 70 56 34 47 63 54
165 152 166 172 171 169 169 166 162 162 156 150 152 141 129 126 115 102 147 134 119 116 100 91 78 65 60 55 51 48 43 38 43 41 69 104 80 73 67 62 48 63 56
163 157 173 174 170 170 169 162 164 170 162 160 156 136 139 134 117 109 106 117 114 99 96 83 80 73 72 56 49 46 39 27 15 355 308 115 93 79 73 69 64 66 63
163 165 180 171 171 170 169 167 170 174 174 169 164 161 159 156 144 129 125 117 116 96 92 95 96 94 76 65 54 55 52 33 355 310 267 50 85 73 76 72 66 56 78
167 174 179 160 179 174 173 172 177 182 183 183 172 165 156 151 144 186 83 219 130 107 108 109 105 97 82 67 60 54 52 35 330 295 43 7 65 63 70 56 76 67 50
170 178 148 162 182 179 178 180 185 192 198 195 181 161 142 169 164 175 210 210 168 131 124 123 116 97 84 62 55 53 39 9 296 50 45 60 55 45 57 72 65 61 62
178 185 159 168 185 181 183 187 191 198 208 189 158 143 190 165 187 203 207 188 160 153 142 127 107 104 90 78 69 56 36 14 34 56 60 51 59 51 52 55 62 57 49
187 188 189 176 191 190 188 193 198 205 195 169 150 144 185 176 206 199 202 172 168 162 151 133 126 114 101 84 72 59 38 351 90 73 65 73 21 47 49 54 62 62 61
197 191 196 185 195 187 180 175 180 176 173 169 146 156 205 201 207 201 204 185 177 173 153 142 133 124 110 93 78 64 38 351 80 61 75 61 14 45 46 53 56 58 60
204 194 200 198 195 199 195 180 175 175 173 167 153 168 185 157 171 187 177 191 188 171 159 144 138 130 118 107 99 90 33 312 69 86 70 41 2 45 46 46 60 71 71
210 206 204 204 203 204 205 191 187 191 187 183 175 166 154 195 191 188 195 170 185 168 161 156 151 137 125 115 115 197 274 60 73 46 65 13 6 36 54 54 65 89 99
212 208 210 207 207 205 207 206 205 214 215 208 192 195 201 205 196 199 174 168 162 156 164 161 147 144 204 167 152 223 75 74 71 49 74 6 341 5 85 91 103 115 99
221 215 212 210 209 208 209 201 196 202 209 207 206 207 203 200 187 187 168 175 164 160 175 165 160 204 176 180 110 85 91 52 61 57 61 359 349 345 39 151 134 105 108
238 217 209 214 209 208 205 201 205 203 188 197 203 206 192 190 183 189 187 183 180 175 184 173 176 153 165 136 123 112 68 28 41 41 99 12 345 324 195 128 133 140 124
243 229 215 204 212 210 207 207 210 208 198 194 203 195 191 192 188 188 190 182 179 178 178 179 173 173 161 154 138 115 89 57 44 38 75 26 4 326 164 166 144 130 133
238 231 219 211 209 209 212 213 207 208 203 200 197 194 196 196 188 190 188 186 185 179 179 180 173 168 163 144 124 102 79 56 19 25 44 95 26 13 63 137 149 139 101
231 228 223 213 207 212 208 209 213 207 208 200 201 195 195 202 191 191 189 187 189 178 173 171 169 163 157 161 154 155 149 138 162 154 154 147 118 50 34 88 164 137 116
250 229 224 217 213 211 215 209 209 208 200 205 201 196 195 204 199 192 189 188 182 175 179 177 173 172 175 172 162 165 168 176 175 172 174 167 138 123 69 50 60 82 104
263 254 225 223 220 221 220 218 216 218 213 208 203 201 198 200 206 195 195 188 179 180 187 183 179 181 176 173 169 158 168 167 178 184 176 169 110 112 111 77 68 48 43
323 291 275 240 231 223 225 220 214 216 219 216 214 211 201 197 202 204 199 187 177 183 186 187 179 188 178 166 161 159 173 170 183 169 173 163 169 157 174 144 170 73 49
17 3 349 287 226 224 213 217 214 214 209 219 220 212 207 199 200 202 198 191 178 191 190 186 178 178 180 152 133 146 167 198 199 188 175 172 172 183 163 162 182 128 131
24 16 10 6 311 216 248 232 240 231 227 223 221 220 209 205 199 200 199 192 182 187 193 189 185 174 180 177 174 148 176 197 219 213 194 188 182 175 180 182 167 193 178
30 27 29 29 25 8 320 285 247 283 335 249 229 228 219 220 207 206 204 197 185 187 191 188 188 183 179 192 225 168 157 224 145 178 206 202 189 191 181 174 181 181 196
28 25 43 47 45 39 27 336 313 265 261 247 250 234 212 210 216 215 218 218 204 195 192 188 186 192 187 184 210 250 193 219 189 164 203 210 202 202 183 182 179 185 193
32 30 34 40 43 38 39 18 351 310 295 299 292 217 226 215 223 231 220 220 215 208 204 191 188 194 195 186 197 143 222 234 239 169 168 187 208 207 196 193 179 182 188
32 33 29 45 44 38 31 27 21 349 325 309 297 279 241 231 223 235 234 228 227 221 213 207 198 195 200 204 190 184 185 182 204 199 153 166 187 197 196 186 190 191 188